Date,TemperatureHighF,TemperatureAvgF,TemperatureLowF,DewpointHighF,DewpointAvgF,DewpointLowF,HumidityHigh,HumidityAvg,HumidityLow,PressureMaxIn,PressureMinIn,WindSpeedMaxMPH,WindSpeedAvgMPH,GustSpeedMaxMPH,PrecipitationSumIn
2013-3-1,40,36,33,34,31,29,95,86,73,29.95,29.80,2,0,5,0.00
2013-3-2,43,36,30,32,29,27,92,76,61,29.95,29.88,2,0,5,0.00
2013-3-3,40,34,30,34,30,27,91,83,73,29.92,29.83,2,0,10,0.01
2013-3-4,38,33,29,29,26,23,90,74,62,30.01,29.84,3,1,13,0.01
2013-3-5,45,35,29,35,29,23,96,78,58,30.36,30.01,2,1,7,0.01
2013-3-6,38,36,32,36,33,30,97,90,72,30.43,30.34,7,2,29,0.13
2013-3-7,34,32,30,32,29,27,96,92,85,30.40,30.30,3,1,10,0.04
2013-3-8,39,33,29,32,28,24,97,85,59,30.45,30.25,1,0,3,0.08
2013-3-9,46,35,24,32,26,20,96,71,47,30.65,30.45,2,0,6,0.34
2013-3-10,44,32,20,33,28,19,97,86,65,30.71,30.60,2,0,7,0.01
2013-3-11,52,41,32,40,35,31,95,79,49,30.61,30.42,2,0,7,0.01
2013-3-12,52,46,41,52,45,39,99,95,90,30.43,29.98,3,1,12,0.26
2013-3-13,52,43,32,52,35,24,99,74,44,30.03,29.95,2,1,15,0.27
2013-3-14,37,30,22,24,19,8,87,63,47,30.10,29.96,3,1,9,0.00
2013-3-15,41,28,18,29,14,6,83,56,29,30.14,29.90,5,1,17,0.00
2013-3-16,37,32,26,28,18,12,81,58,36,30.16,29.92,2,1,7,0.00
2013-3-17,37,28,19,18,13,6,85,56,30,30.61,30.17,4,1,12,0.00
2013-3-18,38,27,13,24,11,3,73,53,30,30.76,30.55,2,0,5,0.00
2013-3-19,33,31,27,32,30,23,97,95,68,30.55,29.92,5,1,15,0.01
2013-3-20,37,30,25,29,24,21,95,82,60,30.08,29.97,3,0,12,0.01
2013-3-21,41,30,19,27,21,16,94,73,39,30.08,29.88,2,0,6,0.13
2013-3-22,42,33,25,27,22,18,96,66,41,29.99,29.88,2,1,6,0.10
2013-3-23,42,34,26,25,22,20,80,62,42,30.03,29.89,5,2,14,0.01
2013-3-24,48,38,28,30,26,23,86,64,44,30.08,30.00,3,1,12,0.00
2013-3-25,41,35,28,35,30,25,93,83,74,30.05,29.83,5,1,12,0.00
2013-3-26,51,40,30,30,25,21,88,59,32,30.04,29.83,3,1,12,0.00
2013-3-27,54,41,28,34,28,23,83,62,38,30.14,30.00,3,1,8,0.00
2013-3-28,47,41,34,37,34,31,97,78,56,30.28,30.14,2,0,6,0.04
2013-3-29,58,44,33,39,34,30,90,69,43,30.31,30.23,2,0,6,0.01
2013-3-30,56,44,33,34,26,19,88,54,24,30.36,30.26,3,1,8,0.00
2013-3-31,60,44,25,40,26,-100,86,56,26,30.40,30.05,5,1,12,0.02